Terug naar catalogus

JD 3

ActiefWetenschapLEO
NORAD 14795·PAYLOAD·🇺🇸 United States

Gelanceerd Feb 5, 1984 vanaf Vandenberg Space Force Base

Loading…

Volgende Passages (komende 24 uur)

TLE

VersSource: Space-Track

Epoch: Sep 14, 2026, 12:07 UTC

1 14795U 84012F   26257.50531479  .00005596  00000-0  51446-3 0  9995
2 14795  63.3024  70.1873 0710978 128.4180 238.2928 13.90588312367086

Volg JD 3 in realtime met AllMySat

Download on the App Store